FALCON 9 R/B, 43563

Orbit data source: Space-Track

FALCON 9 R/B, 43563 is space debris originally from a launch on Sun, 22 Jul 2018 UTC launched from the Air Force Eastern Test Range (AFETR). Debris objects in space refer to the collection of defunct objects orbiting the Earth. Examples of debris include non-operational satellites, rocket bodies, and fragments generated from explosions, collisions, or faulty payload assembly.

Loading next visibility...
Identifier
43563, 2018-059B
Orbit
Active
Country
Flag of USUS
Related business
Manufacturer
SpaceX
Mission
Spacecraft
Bus & Motor
F9ST2, Unknown motor
Mass
~4,000 kg wet, ~4,000 kg dry
Launch date (UTC)
2018-07-22 (7 years ago)
Launch vehicle
Unknown
Launch site
Air Force Eastern Test Range (AFETR)
Object type
Payload
Rocket body
Debris
Shape & HBR
Cyl, 7.8 m
Radar Cross Section
39.980 m², Large (>1 m²)

Expand to show TLE details & history
Last TLE update: 18 hours ago

TLE from 18 hours ago
0 FALCON 9 R/B
1 43563U 18059B   25259.28634833  .00065316  00000-0  14070-2 0  9999
2 43563  26.9598 184.3075 4327268 351.2806   3.1329  6.92482674137914
Epoch: 2025-09-16T06:52Z
TLE epoch observation values (Epoch: 2025-09-16T06:52:20.495Z)
Latitude
-0.00003°
Longitude
85.74321°
Altitude
240.182 km
Speed
9.283 km/s
True Right ascension
12h 17m 13s
True Declination
0° 00' 00"
Sunlit
Object was in daylight at epoch
Visualization orbit readout
Latitude
Unknown
Longitude
Unknown
Altitude
Unknown
Speed
Unknown
Apparent Right ascension
Unknown
Apparent Declination
Unknown
Sunlit
N/A
Visualization observer readout
Local Sidereal Time
17:24:34
Azimuth
Unknown
Elevation
Unknown
Doppler factor
Unknown
Orbital elements
Apogee altitude
10,285.116 km
Perigee altitude
219.504 km
Semi-major axis
11,630.447 km
Eccentricity
0.43273
Inclination
26.9598°
RAAN
184.3075°
Arg. of periapsis
351.2806°
True anomaly
8.75624°
Mean anomaly
3.1329°
Eccentric anomaly
5.51624°
Mean motion
1.73041 °/min
Orbital period
208.04 mins
BSTAR
0.001407
Loading maneuver chart data...
Computing Atmospheric mass density...
Loading historical data...
Loading historical data...
Loading historical data...
Loading historical data...
Loading historical data...
Loading historical data...
Loading historical data...
Other satellites on launch #59 in the year 2018 (2018-07-22 UTC)

Documentation

Showing up to 5 results
|